EW5286 Weather Reports


Display with metric or nautical units.
time (UTC)temp
F
wind
direction
speed
MPH
gust
MPH
rain 1hr
in
rain 24hr
in
rain mn
in
humidity
%
barometer
mb
20260906143059 88 41 0.0 1.0 0.00 0.00 0.00 62 1011.9
20260906142930 88 41 0.0 0.0 0.00 0.00 0.00 63 1014.0
20260906142441 88 42 0.0 1.0 0.00 0.00 0.00 63 1013.9
20260906141931 87 44 0.0 1.0 0.00 0.00 0.00 64 1014.0
20260906141543 86 44 0.0 1.0 0.00 0.00 0.00 64 1012.0
20260906141444 87 44 0.0 1.0 0.00 0.00 0.00 64 1014.0
20260906140923 86 56 0.0 1.0 0.00 0.00 0.00 64 1014.1
20260906140435 86 56 0.0 1.0 0.00 0.00 0.00 65 1014.0
20260906140053 85 56 0.0 1.0 0.00 0.00 0.00 66 1012.1
20260906135947 86 56 0.0 1.0 0.00 0.00 0.00 65 1014.1
20260906135447 85 56 0.0 1.0 0.00 0.00 0.00 66 1014.1
20260906134936 85 56 0.0 1.0 0.00 0.00 0.00 67 1014.1
20260906134535 84 56 0.0 1.0 0.00 0.00 0.00 67 1012.2
20260906134444 84 56 0.0 0.0 0.00 0.00 0.00 67 1014.1
20260906133925 84 56 0.0 0.0 0.00 0.00 0.00 68 1014.0
20260906133437 84 56 0.0 0.0 0.00 0.00 0.00 69 1014.0
20260906133049 83 56 0.0 0.0 0.00 0.00 0.00 70 1012.0
20260906132949 83 56 0.0 0.0 0.00 0.00 0.00 70 1014.0
20260906132430 83 56 0.0 0.0 0.00 0.00 0.00 70 1014.0
20260906131941 83 56 0.0 1.0 0.00 0.00 0.00 69 1013.9
20260906131549 82 56 0.0 1.0 0.00 0.00 0.00 69 1012.0
20260906131421 83 56 0.0 1.0 0.00 0.00 0.00 69 1013.9
20260906130952 83 56 0.0 1.0 0.00 0.00 0.00 69 1013.9
20260906130443 83 56 0.0 2.0 0.00 0.00 0.00 69 1013.9
20260906130035 82 55 0.0 2.0 0.00 0.00 0.00 69 1011.8
20260906125952 83 55 0.0 2.0 0.00 0.00 0.00 69 1013.7
20260906125442 82 53 1.0 3.0 0.00 0.00 0.00 69 1013.6
20260906124924 82 53 1.0 3.0 0.00 0.00 0.00 69 1013.6
20260906124521 82 68 1.0 3.0 0.00 0.00 0.00 69 1011.6
20260906124435 82 53 1.0 3.0 0.00 0.00 0.00 69 1013.5
20260906123925 82 62 2.0 3.0 0.00 0.00 0.00 69 1013.5
20260906123428 82 56 2.0 3.0 0.00 0.00 0.00 69 1013.5
20260906123010 82 53 1.0 3.0 0.00 0.00 0.00 69 1011.5
20260906122939 82 42 2.0 3.0 0.00 0.00 0.00 69 1013.4
20260906122428 82 52 2.0 3.0 0.00 0.00 0.00 69 1013.3
20260906121926 82 58 2.0 3.0 0.00 0.00 0.00 69 1013.4
20260906121517 81 71 1.0 3.0 0.00 0.00 0.00 69 1011.4
20260906121439 82 61 2.0 3.0 0.00 0.00 0.00 69 1013.3
20260906120949 82 54 2.0 3.0 0.00 0.00 0.00 70 1013.2
20260906120430 82 58 1.0 3.0 0.00 0.00 0.00 70 1013.1
20260906120022 81 55 1.0 3.0 0.00 0.00 0.00 70 1011.2
20260906115939 82 58 1.0 3.0 0.00 0.00 0.00 70 1013.1
20260906115428 82 50 2.0 2.0 0.00 0.00 0.00 70 1013.0
20260906115000 82 55 1.0 3.0 0.00 0.00 0.00 70 1013.0
20260906114551 81 58 1.0 3.0 0.00 0.00 0.00 69 1011.0
20260906114450 82 56 1.0 3.0 0.00 0.00 0.00 69 1012.9
20260906113951 82 58 1.0 3.0 0.00 0.00 0.00 69 1012.9
20260906113449 82 56 2.0 3.0 0.00 0.00 0.00 69 1012.9
20260906113012 82 58 1.0 3.0 0.00 0.00 0.00 69 1010.9
20260906112928 82 59 1.0 3.0 0.00 0.00 0.00 69 1012.9
20260906112440 83 58 2.0 3.0 0.00 0.00 0.00 68 1012.8
20260906111923 83 44 1.0 4.0 0.00 0.00 0.00 68 1012.8
20260906111518 82 60 2.0 4.0 0.00 0.00 0.00 68 1010.8
20260906111432 83 64 2.0 4.0 0.00 0.00 0.00 68 1012.7
20260906110939 83 32 2.0 3.0 0.00 0.00 0.00 68 1012.7
20260906110442 83 58 2.0 3.0 0.00 0.00 0.00 69 1012.6
20260906110025 82 53 1.0 2.0 0.00 0.00 0.00 69 1010.6
20260906105952 82 53 2.0 2.0 0.00 0.00 0.00 69 1012.6
20260906105442 83 56 1.0 2.0 0.00 0.00 0.00 69 1012.5
20260906104924 83 65 1.0 3.0 0.00 0.00 0.00 68 1012.6
20260906104512 82 55 1.0 3.0 0.00 0.00 0.00 69 1010.6
20260906104433 82 60 1.0 3.0 0.00 0.00 0.00 69 1012.6
20260906103945 82 54 2.0 3.0 0.00 0.00 0.00 69 1012.5
20260906103457 82 54 1.0 3.0 0.00 0.00 0.00 69 1012.5
20260906103104 82 64 0.0 3.0 0.00 0.00 0.00 69 1010.5
20260906102938 83 63 1.0 3.0 0.00 0.00 0.00 69 1012.5
20260906102428 83 51 2.0 4.0 0.00 0.00 0.00 68 1012.5
20260906101931 83 60 2.0 4.0 0.00 0.00 0.00 68 1012.4
20260906101611 82 59 1.0 3.0 0.00 0.00 0.00 68 1010.4
20260906101512 83 56 2.0 3.0 0.00 0.00 0.00 68 1012.4
20260906100932 83 49 2.0 3.0 0.00 0.00 0.00 68 1012.4
20260906100443 83 60 2.0 3.0 0.00 0.00 0.00 68 1012.4
20260906100055 82 56 2.0 3.0 0.00 0.00 0.00 69 1010.4
20260906095924 83 58 2.0 3.0 0.00 0.00 0.00 69 1012.4
20260906095451 83 57 2.0 3.0 0.00 0.00 0.00 68 1012.4
20260906094923 83 56 2.0 3.0 0.00 0.00 0.00 68 1012.3
20260906094542 82 56 1.0 3.0 0.00 0.00 0.00 68 1010.3
20260906094453 83 54 2.0 3.0 0.00 0.00 0.00 68 1012.2
20260906093943 83 55 2.0 3.0 0.00 0.00 0.00 69 1012.1
20260906093425 83 56 1.0 2.0 0.00 0.00 0.00 69 1012.2
20260906093027 82 52 1.0 2.0 0.00 0.00 0.00 69 1010.2
20260906092955 82 52 1.0 2.0 0.00 0.00 0.00 69 1012.2
20260906092445 82 52 1.0 2.0 0.00 0.00 0.00 70 1012.1
20260906091927 82 53 2.0 2.0 0.00 0.00 0.00 70 1012.0
20260906091515 81 52 1.0 2.0 0.00 0.00 0.00 70 1009.9
20260906091439 82 54 1.0 2.0 0.00 0.00 0.00 70 1011.9
20260906090948 82 58 0.0 3.0 0.00 0.00 0.00 70 1011.8
20260906090431 82 53 1.0 2.0 0.00 0.00 0.00 70 1011.8
20260906090022 82 55 0.0 2.0 0.00 0.00 0.00 69 1009.8
20260906085943 83 56 1.0 2.0 0.00 0.00 0.00 69 1011.8
20260906085451 83 55 1.0 2.0 0.00 0.00 0.00 68 1011.8
20260906084933 83 64 0.0 1.0 0.00 0.00 0.00 68 1011.9
20260906084506 83 64 0.0 1.0 0.00 0.00 0.00 68 1009.9
20260906084423 83 64 0.0 1.0 0.00 0.00 0.00 67 1011.9
20260906083950 84 70 0.0 1.0 0.00 0.00 0.00 66 1011.9
20260906083440 84 70 0.0 1.0 0.00 0.00 0.00 65 1011.8
20260906083100 83 70 0.0 1.0 0.00 0.00 0.00 66 1009.8
20260906082921 84 70 0.0 1.0 0.00 0.00 0.00 66 1011.8
20260906082432 83 65 0.0 2.0 0.00 0.00 0.00 67 1011.7
20260906081944 83 66 0.0 2.0 0.00 0.00 0.00 68 1011.7
20260906081604 84 66 0.0 2.0 0.00 0.00 0.00 68 1009.7
20260906081423 84 66 0.0 1.0 0.00 0.00 0.00 66 1011.6
20260906080934 85 101 0.0 1.0 0.00 0.00 0.00 65 1011.6
20260906080426 84 9 0.0 1.0 0.00 0.00 0.00 66 1011.6
20260906080052 84 36 0.0 1.0 0.00 0.00 0.00 66 1009.7
20260906075928 84 37 0.0 1.0 0.00 0.00 0.00 66 1011.7
20260906075439 84 35 0.0 1.0 0.00 0.00 0.00 67 1011.7
20260906074928 83 34 0.0 1.0 0.00 0.00 0.00 68 1011.8
20260906074554 82 252 0.0 1.0 0.00 0.00 0.00 69 1009.8
20260906074456 83 252 0.0 1.0 0.00 0.00 0.00 70 1011.8
20260906073936 83 252 0.0 1.0 0.00 0.00 0.00 71 1011.8
20260906073427 83 252 0.0 0.0 0.00 0.00 0.00 71 1011.8
20260906073041 83 252 0.0 1.0 0.00 0.00 0.00 71 1009.9
20260906072939 83 252 0.0 1.0 0.00 0.00 0.00 71 1011.8
20260906072438 83 252 0.0 1.0 0.00 0.00 0.00 71 1011.9
20260906071928 84 252 0.0 2.0 0.00 0.00 0.00 71 1011.9
20260906071544 83 252 0.0 2.0 0.00 0.00 0.00 70 1010.0
20260906071425 84 252 1.0 2.0 0.00 0.00 0.00 70 1012.0
20260906070429 84 252 2.0 3.0 0.00 0.00 0.00 69 1012.2
20260906070055 84 246 2.0 3.0 0.00 0.00 0.00 69 1010.3
20260906065930 84 247 2.0 3.0 0.00 0.00 0.00 69 1012.2
20260906065422 85 238 3.0 4.0 0.00 0.00 0.00 68 1012.1
20260906064935 85 238 3.0 4.0 0.00 0.00 0.00 67 1012.1
20260906064603 85 238 2.0 3.0 0.00 0.00 0.00 67 1010.2
20260906064505 85 240 3.0 3.0 0.00 0.00 0.00 67 1012.1
20260906063925 86 242 3.0 3.0 0.00 0.00 0.00 66 1012.2
20260906063436 86 251 2.0 3.0 0.00 0.00 0.00 65 1012.1
20260906063049 86 251 1.0 3.0 0.00 0.00 0.00 65 1010.1
20260906062947 86 246 2.0 3.0 0.00 0.00 0.00 65 1012.1
20260906062447 86 236 3.0 4.0 0.00 0.00 0.00 65 1012.2
20260906061938 86 236 2.0 4.0 0.00 0.00 0.00 65 1012.2
20260906061534 85 214 2.0 4.0 0.00 0.00 0.00 66 1010.3
20260906061429 86 210 2.0 4.0 0.00 0.00 0.00 65 1012.3
20260906060929 88 259 0.0 1.0 0.00 0.00 0.00 62 1012.2
20260906060502 88 259 0.0 0.0 0.00 0.00 0.00 61 1012.2
20260906060018 88 259 0.0 1.0 0.00 0.00 0.00 60 1010.1
20260906055946 88 259 0.0 1.0 0.00 0.00 0.00 60 1012.1
20260906055436 88 259 0.0 0.0 0.00 0.00 0.00 61 1012.1
20260906054947 88 259 0.0 1.0 0.00 0.00 0.00 62 1012.1
20260906054518 87 259 0.0 1.0 0.00 0.00 0.00 63 1010.2
20260906054429 87 259 0.0 1.0 0.00 0.00 0.00 63 1012.2
20260906054000 87 259 0.0 1.0 0.00 0.00 0.00 63 1012.2
20260906053431 88 259 0.0 1.0 0.00 0.00 0.00 63 1012.1
20260906053056 87 258 0.0 1.0 0.00 0.00 0.00 62 1010.2
20260906052931 88 259 0.0 1.0 0.00 0.00 0.00 62 1012.1
20260906052422 88 257 1.0 1.0 0.00 0.00 0.00 62 1012.1
20260906051923 87 256 0.0 1.0 0.00 0.00 0.00 63 1012.0
20260906051609 87 256 0.0 1.0 0.00 0.00 0.00 63 1010.0
20260906051433 87 256 1.0 1.0 0.00 0.00 0.00 64 1012.0
20260906050944 87 256 1.0 1.0 0.00 0.00 0.00 64 1011.9
20260906050435 87 254 1.0 2.0 0.00 0.00 0.00 64 1012.0
20260906050049 87 234 0.0 2.0 0.00 0.00 0.00 64 1010.1
20260906045946 87 234 1.0 2.0 0.00 0.00 0.00 64 1012.0
20260906045425 88 233 1.0 2.0 0.00 0.00 0.00 63 1012.0
20260906044936 87 231 1.0 2.0 0.00 0.00 0.00 63 1012.1
20260906044555 87 221 1.0 2.0 0.00 0.00 0.00 63 1010.0
20260906044439 87 224 2.0 2.0 0.00 0.00 0.00 63 1012.0
20260906043923 87 221 1.0 2.0 0.00 0.00 0.00 64 1011.9
20260906043435 88 240 2.0 4.0 0.00 0.00 0.00 64 1012.0
20260906043042 87 238 2.0 4.0 0.00 0.00 0.00 63 1010.0
20260906042946 88 236 2.0 4.0 0.00 0.00 0.00 63 1012.0
20260906042427 88 217 2.0 4.0 0.00 0.00 0.00 63 1012.0
20260906042000 88 209 3.0 4.0 0.00 0.00 0.00 64 1011.9
20260906041527 87 214 2.0 4.0 0.00 0.00 0.00 64 1010.0
20260906041429 88 219 2.0 3.0 0.00 0.00 0.00 64 1011.9
20260906040932 88 218 2.0 4.0 0.00 0.00 0.00 64 1012.0
20260906040441 88 236 2.0 4.0 0.00 0.00 0.00 64 1012.0
20260906040034 88 229 2.0 4.0 0.00 0.00 0.00 63 1010.1
20260906035932 88 191 3.0 4.0 0.00 0.00 0.00 63 1012.0
20260906035434 88 210 2.0 4.0 0.00 0.00 0.00 63 1012.1
20260906034924 88 198 3.0 5.0 0.00 0.00 0.00 63 1012.0
20260906034540 88 176 2.0 6.0 0.00 0.00 0.00 63 1010.1
20260906034435 88 193 3.0 6.0 0.00 0.00 0.00 63 1012.2
20260906033935 89 228 3.0 6.0 0.00 0.00 0.00 63 1012.2
20260906033436 89 207 2.0 6.0 0.00 0.00 0.00 63 1012.3
20260906033055 88 178 2.0 6.0 0.00 0.00 0.00 63 1010.2
20260906032936 88 184 3.0 6.0 0.00 0.00 0.00 63 1012.2
20260906032428 88 180 2.0 4.0 0.00 0.00 0.00 63 1012.2
20260906031939 88 149 2.0 5.0 0.00 0.00 0.00 63 1012.2
20260906031604 88 180 2.0 5.0 0.00 0.00 0.00 63 1010.3
20260906031442 89 204 2.0 5.0 0.00 0.00 0.00 63 1012.2
20260906030931 89 188 3.0 5.0 0.00 0.00 0.00 62 1012.3
20260906030429 89 169 3.0 5.0 0.00 0.00 0.00 62 1012.4
20260906030005 88 216 3.0 5.0 0.00 0.00 0.00 62 1010.4
20260906025941 89 205 3.0 5.0 0.00 0.00 0.00 62 1012.4
20260906025430 89 181 2.0 5.0 0.00 0.00 0.00 62 1012.3
20260906024941 89 166 2.0 5.0 0.00 0.00 0.00 62 1012.3
20260906024553 88 202 2.0 4.0 0.00 0.00 0.00 62 1010.2
20260906024451 89 193 3.0 4.0 0.00 0.00 0.00 61 1012.2
20260906023939 89 178 3.0 4.0 0.00 0.00 0.00 61 1012.2
20260906023442 89 205 2.0 5.0 0.00 0.00 0.00 61 1012.2
20260906023018 88 269 3.0 5.0 0.00 0.00 0.00 61 1010.1
20260906022952 89 200 3.0 5.0 0.00 0.00 0.00 60 1012.1
20260906022422 89 242 3.0 5.0 0.00 0.00 0.00 60 1012.1
20260906021932 89 257 2.0 5.0 0.00 0.00 0.00 59 1012.1
20260906021547 89 236 2.0 5.0 0.00 0.00 0.00 59 1010.0
20260906020933 90 209 2.0 6.0 0.00 0.00 0.00 58 1011.8
20260906020445 90 250 3.0 7.0 0.00 0.00 0.00 57 1011.9
20260906020002 90 228 2.0 6.0 0.00 0.00 0.00 56 1009.9
20260906015926 91 231 3.0 6.0 0.00 0.00 0.00 56 1011.9
20260906015433 91 213 2.0 4.0 0.00 0.00 0.00 55 1011.9
20260906015004 91 226 1.0 3.0 0.00 0.00 0.00 55 1011.8
20260906014554 91 226 1.0 3.0 0.00 0.00 0.00 54 1009.8
20260906014423 91 240 2.0 3.0 0.00 0.00 0.00 54 1011.8
20260906013935 91 205 2.0 3.0 0.00 0.00 0.00 54 1011.7
20260906013448 92 181 1.0 3.0 0.00 0.00 0.00 54 1011.7
20260906013100 91 230 2.0 3.0 0.00 0.00 0.00 54 1009.7
20260906012928 92 218 2.0 3.0 0.00 0.00 0.00 53 1011.7
20260906012439 92 232 2.0 3.0 0.00 0.00 0.00 53 1011.5
20260906011922 92 214 1.0 2.0 0.00 0.00 0.00 53 1011.4
20260906011505 91 233 0.0 2.0 0.00 0.00 0.00 53 1009.4
20260906011433 92 236 1.0 2.0 0.00 0.00 0.00 53 1011.3
20260906010944 92 233 1.0 2.0 0.00 0.00 0.00 52 1011.3
20260906010436 92 177 1.0 2.0 0.00 0.00 0.00 52 1011.3
20260906010055 92 177 1.0 2.0 0.00 0.00 0.00 52 1009.3
20260906005936 93 173 2.0 2.0 0.00 0.00 0.00 52 1011.3
20260906005428 93 223 1.0 2.0 0.00 0.00 0.00 52 1011.2
20260906004939 93 224 0.0 2.0 0.00 0.00 0.00 51 1011.1
20260906004604 93 219 0.0 2.0 0.00 0.00 0.00 50 1009.1
20260906004441 93 203 1.0 2.0 0.00 0.00 0.00 50 1011.1
20260906003939 94 229 1.0 2.0 0.00 0.00 0.00 49 1011.2
20260906003422 94 207 0.0 2.0 0.00 0.00 0.00 49 1011.1
20260906003021 93 166 0.0 2.0 0.00 0.00 0.00 49 1009.1
20260906002948 94 213 0.0 2.0 0.00 0.00 0.00 49 1011.1
20260906002459 94 200 1.0 2.0 0.00 0.00 0.00 49 1011.1
20260906001929 94 240 0.0 1.0 0.00 0.00 0.00 48 1011.1
20260906001546 94 264 0.0 3.0 0.00 0.00 0.00 48 1009.1
20260906001431 95 264 0.0 3.0 0.00 0.00 0.00 48 1011.0
20260906000922 95 268 0.0 3.0 0.00 0.00 0.00 48 1011.1
20260906000455 95 226 0.0 1.0 0.00 0.00 0.00 47 1011.1
20260906000034 95 17 0.0 1.0 0.00 0.00 0.00 47 1009.2
20260905235943 95 25 0.0 1.0 0.00 0.00 0.00 47 1011.1
20260905235454 95 41 0.0 1.0 0.00 0.00 0.00 47 1011.1
20260905234944 96 41 0.0 1.0 0.00 0.00 0.00 47 1011.1
20260905234606 95 43 0.0 1.0 0.00 0.00 0.00 46 1009.1
20260905234425 96 43 0.0 1.0 0.00 0.00 0.00 46 1011.1
20260905233957 96 34 0.0 1.0 0.00 0.00 0.00 46 1011.1
20260905233446 96 27 0.0 1.0 0.00 0.00 0.00 46 1011.1
20260905233029 95 25 0.0 2.0 0.00 0.00 0.00 46 1009.1
20260905232951 96 25 0.0 2.0 0.00 0.00 0.00 46 1011.0
20260905232442 96 60 1.0 5.0 0.00 0.00 0.00 46 1011.0
20260905231924 96 60 0.0 5.0 0.00 0.00 0.00 45 1011.0
20260905231516 96 59 0.0 5.0 0.00 0.00 0.00 45 1008.9
20260905231433 97 314 1.0 5.0 0.00 0.00 0.00 45 1010.9
20260905230925 97 15 0.0 4.0 0.00 0.00 0.00 44 1010.9
20260905230427 97 6 0.0 4.0 0.00 0.00 0.00 44 1010.9
20260905230005 97 162 0.0 4.0 0.00 0.00 0.00 44 1008.9
20260905225938 97 208 1.0 3.0 0.00 0.00 0.00 44 1010.8
20260905225428 97 59 1.0 7.0 0.00 0.00 0.00 44 1010.7
20260905224937 97 43 0.0 7.0 0.00 0.00 0.00 44 1010.7
20260905224554 97 220 0.0 4.0 0.00 0.00 0.00 44 1008.8
20260905224449 97 235 0.0 4.0 0.00 0.00 0.00 44 1010.7
20260905223930 97 59 0.0 3.0 0.00 0.00 0.00 44 1010.8
20260905223442 97 59 1.0 2.0 0.00 0.00 0.00 44 1010.7
20260905223101 97 38 0.0 4.0 0.00 0.00 0.00 44 1008.7
20260905222923 97 351 1.0 4.0 0.00 0.00 0.00 44 1010.7
20260905222435 98 52 1.0 4.0 0.00 0.00 0.00 43 1010.8
20260905221942 98 68 1.0 4.0 0.00 0.00 0.00 43 1010.8
20260905221544 97 34 0.0 3.0 0.00 0.00 0.00 43 1008.9
20260905221448 98 39 0.0 3.0 0.00 0.00 0.00 43 1010.9
20260905220950 98 340 1.0 4.0 0.00 0.00 0.00 43 1011.0
20260905220441 98 58 1.0 4.0 0.00 0.00 0.00 43 1011.0
20260905220029 98 60 0.0 5.0 0.00 0.00 0.00 44 1009.0
20260905215931 98 63 1.0 5.0 0.00 0.00 0.00 44 1011.0
20260905215434 98 68 2.0 5.0 0.00 0.00 0.00 43 1011.0
20260905214924 98 45 1.0 4.0 0.00 0.00 0.00 44 1011.1
20260905214537 97 58 0.0 2.0 0.00 0.00 0.00 43 1009.1
20260905214433 98 59 0.0 3.0 0.00 0.00 0.00 44 1011.1
20260905213935 98 58 1.0 3.0 0.00 0.00 0.00 43 1011.1
20260905213447 99 60 1.0 4.0 0.00 0.00 0.00 41 1011.1
20260905213023 98 53 0.0 4.0 0.00 0.00 0.00 41 1009.1
20260905212936 99 53 1.0 4.0 0.00 0.00 0.00 41 1011.1
20260905212447 100 53 1.0 3.0 0.00 0.00 0.00 41 1011.1
20260905211929 100 62 1.0 3.0 0.00 0.00 0.00 41 1011.1
20260905211615 99 37 0.0 1.0 0.00 0.00 0.00 41 1009.2
20260905211449 100 37 0.0 2.0 0.00 0.00 0.00 42 1011.2
20260905210928 98 18 0.0 3.0 0.00 0.00 0.00 42 1011.3
20260905210434 98 53 0.0 6.0 0.00 0.00 0.00 41 1011.4
20260905210110 98 29 1.0 6.0 0.00 0.00 0.00 41 1009.4
20260905205936 99 75 2.0 6.0 0.00 0.00 0.00 40 1011.4
20260905205424 100 65 2.0 6.0 0.00 0.00 0.00 39 1011.6
20260905204936 100 195 1.0 5.0 0.00 0.00 0.00 41 1011.5
20260905204544 100 159 2.0 5.0 0.00 0.00 0.00 41 1009.7
20260905204447 100 197 2.0 5.0 0.00 0.00 0.00 41 1011.7
20260905203924 100 25 1.0 5.0 0.00 0.00 0.00 41 1011.7
20260905203437 100 227 2.0 7.0 0.00 0.00 0.00 41 1011.9
20260905203049 99 250 1.0 7.0 0.00 0.00 0.00 41 1010.0
20260905202948 100 302 2.0 7.0 0.00 0.00 0.00 42 1012.0
20260905202448 98 251 1.0 4.0 0.00 0.00 0.00 44 1012.0
20260905202008 97 94 1.0 3.0 0.00 0.00 0.00 45 1012.0
20260905201514 96 340 0.0 1.0 0.00 0.00 0.00 47 1010.2
20260905201447 96 27 0.0 1.0 0.00 0.00 0.00 46 1012.2
20260905200937 96 4 0.0 2.0 0.00 0.00 0.00 46 1012.3
20260905200449 96 356 0.0 4.0 0.00 0.00 0.00 46 1012.3
20260905200103 95 51 0.0 4.0 0.00 0.00 0.00 46 1010.3
20260905195955 96 50 1.0 6.0 0.00 0.00 0.00 46 1012.4
20260905195434 97 58 1.0 6.0 0.00 0.00 0.00 46 1012.4
20260905194926 97 63 1.0 5.0 0.00 0.00 0.00 44 1012.5
20260905194547 97 61 1.0 5.0 0.00 0.00 0.00 44 1010.5
20260905194427 98 276 1.0 5.0 0.00 0.00 0.00 44 1012.6
20260905194008 98 11 2.0 5.0 0.00 0.00 0.00 45 1012.6
20260905193429 98 161 2.0 5.0 0.00 0.00 0.00 45 1012.8
20260905193033 97 327 1.0 4.0 0.00 0.00 0.00 45 1010.9
20260905192934 97 48 1.0 3.0 0.00 0.00 0.00 47 1012.8
20260905192435 97 297 0.0 2.0 0.00 0.00 0.00 47 1012.9
20260905191926 97 28 0.0 3.0 0.00 0.00 0.00 46 1013.0
20260905191540 97 359 0.0 3.0 0.00 0.00 0.00 45 1011.1
20260905191438 98 58 1.0 5.0 0.00 0.00 0.00 45 1013.1
20260905190939 98 344 1.0 5.0 0.00 0.00 0.00 46 1013.1
20260905190451 99 303 1.0 6.0 0.00 0.00 0.00 44 1013.2
20260905190031 99 51 1.0 6.0 0.00 0.00 0.00 44 1011.3
20260905185941 99 76 1.0 6.0 0.00 0.00 0.00 44 1013.3
20260905185450 99 259 2.0 5.0 0.00 0.00 0.00 44 1013.3
20260905184932 98 257 3.0 4.0 0.00 0.00 0.00 44 1013.3
20260905184536 97 299 0.0 5.0 0.00 0.00 0.00 46 1011.3
20260905184422 97 285 0.0 5.0 0.00 0.00 0.00 46 1013.3
20260905183925 96 58 2.0 5.0 0.00 0.00 0.00 47 1013.3
20260905183431 96 278 1.0 3.0 0.00 0.00 0.00 46 1013.4
20260905183035 96 113 0.0 4.0 0.00 0.00 0.00 46 1011.5
20260905182942 97 258 0.0 4.0 0.00 0.00 0.00 46 1013.5
20260905182453 98 275 1.0 5.0 0.00 0.00 0.00 45 1013.5
20260905182004 100 56 2.0 5.0 0.00 0.00 0.00 43 1013.6
20260905181602 100 56 0.0 3.0 0.00 0.00 0.00 42 1011.7
20260905181424 101 53 1.0 3.0 0.00 0.00 0.00 42 1013.6
20260905180935 101 50 1.0 4.0 0.00 0.00 0.00 43 1013.6
20260905180447 100 263 0.0 6.0 0.00 0.00 0.00 43 1013.7
20260905180008 99 283 1.0 6.0 0.00 0.00 0.00 44 1011.8
20260905175948 100 84 1.0 6.0 0.00 0.00 0.00 44 1013.7
20260905175438 99 228 1.0 4.0 0.00 0.00 0.00 45 1013.8
20260905174930 98 218 2.0 4.0 0.00 0.00 0.00 47 1013.8
20260905174556 97 154 0.0 4.0 0.00 0.00 0.00 45 1011.9
20260905174431 97 144 1.0 4.0 0.00 0.00 0.00 46 1013.9
20260905173922 97 57 1.0 4.0 0.00 0.00 0.00 45 1014.0
20260905173423 99 41 2.0 5.0 0.00 0.00 0.00 44 1014.0
20260905173113 97 251 0.0 5.0 0.00 0.00 0.00 45 1012.1
20260905172943 97 242 3.0 5.0 0.00 0.00 0.00 44 1014.1
20260905172507 98 229 1.0 3.0 0.00 0.00 0.00 44 1014.1
20260905171929 98 160 1.0 5.0 0.00 0.00 0.00 44 1014.2
20260905171527 97 234 2.0 5.0 0.00 0.00 0.00 46 1012.3
20260905171457 97 236 1.0 4.0 0.00 0.00 0.00 47 1014.2
20260905170947 96 187 1.0 7.0 0.00 0.00 0.00 48 1014.3
20260905170437 96 51 2.0 7.0 0.00 0.00 0.00 48 1014.3
20260905170100 96 58 1.0 4.0 0.00 0.00 0.00 48 1012.4
20260905170008 96 75 1.0 4.0 0.00 0.00 0.00 49 1014.4
20260905165428 96 67 2.0 4.0 0.00 0.00 0.00 49 1014.4
20260905164940 95 53 1.0 4.0 0.00 0.00 0.00 51 1014.4
20260905164541 94 49 1.0 6.0 0.00 0.00 0.00 51 1012.4
20260905164421 95 51 2.0 6.0 0.00 0.00 0.00 51 1014.4
20260905163933 95 65 2.0 6.0 0.00 0.00 0.00 51 1014.6
20260905163440 95 58 1.0 5.0 0.00 0.00 0.00 52 1014.6
20260905163023 94 53 2.0 5.0 0.00 0.00 0.00 52 1012.6
20260905162930 95 53 2.0 5.0 0.00 0.00 0.00 52 1014.6
20260905162432 94 50 1.0 3.0 0.00 0.00 0.00 52 1014.7
20260905161924 94 60 1.0 4.0 0.00 0.00 0.00 52 1014.7
20260905161530 93 58 0.0 4.0 0.00 0.00 0.00 53 1012.7
20260905161430 94 63 1.0 4.0 0.00 0.00 0.00 53 1014.7
20260905160931 93 66 1.0 4.0 0.00 0.00 0.00 55 1014.7
20260905160442 93 54 2.0 4.0 0.00 0.00 0.00 56 1014.7
20260905160020 92 55 0.0 4.0 0.00 0.00 0.00 56 1012.8
20260905155931 93 54 1.0 4.0 0.00 0.00 0.00 56 1014.8
20260905155444 93 56 1.0 4.0 0.00 0.00 0.00 57 1014.8
20260905154946 92 37 1.0 5.0 0.00 0.00 0.00 58 1014.8
20260905154502 91 61 1.0 5.0 0.00 0.00 0.00 57 1012.8
20260905154436 92 58 2.0 5.0 0.00 0.00 0.00 58 1014.8
20260905153926 92 58 1.0 4.0 0.00 0.00 0.00 58 1014.7
20260905153438 91 52 1.0 4.0 0.00 0.00 0.00 59 1014.7
20260905153105 91 44 1.0 3.0 0.00 0.00 0.00 59 1012.8
20260905152947 91 87 1.0 3.0 0.00 0.00 0.00 60 1014.8
20260905152426 90 55 1.0 3.0 0.00 0.00 0.00 61 1014.7
20260905151936 90 60 1.0 4.0 0.00 0.00 0.00 62 1014.7
20260905151559 89 57 0.0 4.0 0.00 0.00 0.00 63 1012.7
20260905151439 89 53 1.0 4.0 0.00 0.00 0.00 63 1014.7
20260905150929 89 47 1.0 4.0 0.00 0.00 0.00 63 1014.6
20260905150457 89 55 1.0 2.0 0.00 0.00 0.00 64 1014.6
20260905150044 88 12 0.0 1.0 0.00 0.00 0.00 65 1012.7
20260905145948 88 12 0.0 1.0 0.00 0.00 0.00 65 1014.6
20260905145429 88 321 0.0 3.0 0.00 0.00 0.00 66 1014.6
20260905144930 87 50 0.0 3.0 0.00 0.00 0.00 67 1014.6
20260905144559 86 37 0.0 3.0 0.00 0.00 0.00 66 1012.7
20260905144501 87 46 0.0 2.0 0.00 0.00 0.00 67 1014.6
20260905143920 86 45 1.0 2.0 0.00 0.00 0.00 67 1014.6
20260905143433 86 14 0.0 1.0 0.00 0.00 0.00 68 1014.5